Вернуться в каталог

STARLINK-31739

АктивенСвязьVLEO
NORAD 59766·PAYLOAD·🇺🇸 United States

Запущен May 14, 2024 с Vandenberg Space Force Base

Loading…

Ближайшие Пролёты (ближайшие 24 часа)

TLE

СвежийSource: CelesTrak SupGP

Эпоха: Sep 14, 2026, 21:17 UTC

1 59766C 24091P   26257.88729167  .00038504  00000+0  11375-2 0  2574
2 59766  53.1574 223.6594 0001365  97.7672 269.9930 15.34373551    10

Отслеживайте STARLINK-31739 в реальном времени с AllMySat

Download on the App Store